Location: B�hl
(48.6968°N, 8.1352°E)
Time: 02:31:49
(UTC+00:00)

Ariane Rocket - Pass Details

Date: 08 March 2021
Orbit: 759 x 771 km, 98.7° (Epoch: 12 April)

Event Time Altitude Azimuth Distance (km) Brightness Sun altitude
Exits shadow 18:55:34 18° 140° (SE) 1,801 4.5 -16.1°
Maximum altitude 18:59:09 54° 69° (ENE) 938 3.1 -16.7°
Drops below altitude 10° 19:04:07 10° 353° (N) 2,321 5.7 -17.5°
Sets 19:06:28 0° 349° (N) 3,251 6.6 -17.9°
